Location: Prairie Dale
(45.6972°N, 104.5033°W)
Time: 21:45:06
(UTC+00:00)

DX 1 - Pass Details

Date: 03 July 2022
Orbit: 616 x 630 km, 98.4° (Epoch: 13 August)

Event Time Altitude Azimuth Distance (km) Brightness Sun altitude
Rises 05:23:27 0° 0° (N) 2,931 ? -17.8°
Reaches altitude 10° 05:26:05 10° 345° (NNW) 2,017 ? -17.9°
Maximum altitude 05:29:19 21° 297° (WNW) 1,436 ? -18.2°
Drops below altitude 10° 05:32:33 10° 249° (WSW) 2,002 ? -18.4°
Sets 05:35:09 0° 233° (SW) 2,902 ? -18.5°
